星链-4676 (STARLINK-4676 )

导读

STARLINK-4676是美国太空探索技术公司(SpaceX)于2022年8月28日发射的星链(Starlink)互联网卫星,属于星链低轨卫星互联网星座的组成部分。星链项目计划在近地轨道部署数万颗卫星,旨在为全球偏远、基础设施缺失地区提供高速低延迟的宽带互联网服务。这颗卫星的入轨进一步扩充了星链星座的覆盖能力,推动了全球卫星互联网服务的部署进程,目前星链已在全球六十多个国家和地区落地商用。

Basic Information
目录编号:
53598
目录名称:
STARLINK-4676
国际标识:
2022-104L
轨道中心:
EARTH
卫星名称:
星链-4676
卫星全名:
星链-4676 (STARLINK-4676 )
卫星状态:
在轨 (已飞行1389 天)
发射日期:
2022-08-28 UTC
国别 :
美国 (US)
星等 :
--
Orbit Information
数据来源 国际轨道数据 AOE轨道数据
星历时间 2026-06-16T14:55:37+0800
1天前
查看轨道信息
2026-06-16T06:00:00+0800
1天前
查看轨道信息
半长轴 6917.871km 6917.852km
偏心率 0.0001273 0.0002299
轨道倾角 53.161° 53.161°
近地点辐角 85.949° 84.435°
升交点赤经 161.141° 162.810°
平近点角 274.165° 54.162°
近地点 538.853km 538.124km
远地点 540.615km 541.306km
周期 95.437分钟 95.437分钟
每日圈数 15.088431 15.088494
Detailed Information
固有亮度:
5
最大亮度:
2.5
卫星平台:
Starlink v1.5
覆盖范围:
全球
运营商:
太空探索技术公司
运营商所在国:
美国
制造商(研发单位):
太空探索技术公司
制造商所在国:
美国
使用方式:
暂无
Satellite Introduction
星链(Starlink)计划是由太空探索技术公司(SpaceX)提出的一个巨型低轨卫星互联网星座项目,计划在2019年至2024年间在太空搭建由约1.2万颗卫星组成的“星链”网络,其中1584颗将部署在地球上空550千米处的近地轨道,并从2020年开始工作。该卫星仍在工作。
2D Orbit Map
3D Orbit Map
Orbit Altitude Analysis Chart
Orbit Inclination Analysis Chart
Orbit Comprehensive Analysis Chart
View Comprehensive Chart